カタログに戻る

GSLV R/B

運用中HEO
NORAD 58991·ROCKET BODY·🇮🇳 India

打ち上げ Feb 17, 2024 から Satish Dhawan Space Centre

Loading…

次のパス (今後24時間)

TLE

最新Source: Space-Track

元期: Sep 14, 2026, 15:06 UTC

1 58991U 24033B   26257.62925060  .00251380  36065-6  17940-2 0  9994
2 58991  19.3485  74.3281 5920839 117.1828 314.1447  4.27974654 29095

AllMySatでGSLV R/Bをリアルタイム追跡

Download on the App Store